Volver al catálogo

STARLINK-30213

ActivoComunicacionesVLEO
NORAD 57504·PAYLOAD·🇺🇸 United States

Lanzado Aug 7, 2023 desde Cape Canaveral Space Force Station

Loading…

Próximos Pases (próximas 24 horas)

TLE

ActualizadoSource: CelesTrak SupGP

Época: Sep 14, 2026, 14:32 UTC

1 57504C 23113K   26257.60604167 -.00031670  00000+0 -11474-2 0  2577
2 57504  43.0038  29.5439 0001389 272.3407  64.0905 15.27584559    15

Sigue STARLINK-30213 en tiempo real con AllMySat

Download on the App Store